Weather History for Edinburg, TX

Change the Weather History Date:

Tuesday, April 30, 2013

  Actual Average (KMFE) Record (KMFE)
Temperature  
Mean Temperature 80 °F 79 °F  
Max Temperature 90 °F 89 °F 100 °F (1954)
Min Temperature 69 °F 69 °F 53 °F (1996)
Degree Days  
Heating Degree Days 0 0  
Month to date heating degree days 3  
Since 1 July heating degree days 579  
Cooling Degree Days 14 14  
Month to date cooling degree days 354  
Year to date cooling degree days 731  
Growing Degree Days 30 (Base 50)    
Moisture  
Dew Point 69 °F    
Average Humidity 74    
Maximum Humidity 93    
Minimum Humidity 41    
Precipitation  
Precipitation 0.01 in 0.06 in 1.08 in (1976)
Month to date precipitation 1.34  
Year to date precipitation 4.53  
Sea Level Pressure  
Sea Level Pressure 29.76 in    
Wind  
Wind Speed 5 mph (ESE)    
Max Wind Speed 16 mph    
Max Gust Speed 20 mph    
Visibility 5 miles    
Events Fog , Rain    
T = Trace of Precipitation, MM = Missing Value Source: NWS Daily Summary

Daily Weather History Graph

Daily Weather History Graph

Search for Another Location

Airport:

Trip Planner

Search our weather history database for the weather conditions in past years. The results will help you decide how hot, cold, wet, or windy it might be!

Date:

Astronomy

Apr. 30, 2013 Rise Set
Actual Time 6:55 AM CDT 8:04 PM CDT
Civil Twilight 6:31 AM CDT 8:28 PM CDT
Nautical Twilight 6:02 AM CDT 8:57 PM CDT
Astronomical Twilight 5:32 AM CDT 9:27 PM CDT
Moon 12:22 AM CDT (4/30) 11:31 AM CDT (4/30)
Length of Visible Light 13h 57m
Length of Day
13h 08m
Waning Gibbous, 70% of the Moon is Illuminated
Apr 30
Waning Gibbous
May 2
Last Quarter
May 9
New
May 17
First Quarter
May 24
Full

Hourly Weather History & Observations

Time (CDT) Temp. Heat Index Dew Point Humidity Pressure Visibility Wind Dir Wind Speed Gust Speed Precip Events Conditions
12:15 AM 73.9 °F - 70.7 °F 90% 29.81 in 4.0 mi ESE 4.6 mph - N/A   Overcast
12:35 AM 73.8 °F - 70.7 °F 90% 29.80 in 4.0 mi SE 4.6 mph - N/A   Overcast
12:55 AM 73.2 °F - 70.2 °F 90% 29.81 in 3.0 mi SE 3.5 mph - N/A   Overcast
1:15 AM 72.7 °F - 69.8 °F 91% 29.80 in 3.0 mi SE 3.5 mph - N/A   Mist
1:35 AM 72.5 °F - 69.4 °F 90% 29.80 in 2.5 mi SSE 3.5 mph - N/A   Mist
1:55 AM 72.5 °F - 69.8 °F 91% 29.81 in 3.0 mi Calm Calm - N/A   Scattered Clouds
2:15 AM 72.1 °F - 69.4 °F 91% 29.81 in 4.0 mi Calm Calm - N/A   Mostly Cloudy
2:35 AM 72.0 °F - 69.3 °F 91% 29.80 in 3.0 mi Calm Calm - N/A   Scattered Clouds
2:55 AM 71.1 °F - 68.4 °F 91% 29.80 in 0.5 mi Calm Calm - N/A Fog Fog
3:15 AM 71.6 °F - 68.9 °F 91% 29.79 in 3.0 mi South 3.5 mph - N/A   Overcast
3:55 AM 71.1 °F - 68.4 °F 91% 29.78 in 3.0 mi Calm Calm - N/A   Clear
4:15 AM 70.3 °F - 67.6 °F 91% 29.78 in 0.8 mi Calm Calm - N/A   Mostly Cloudy
4:35 AM 70.5 °F - 68.0 °F 92% 29.78 in 0.8 mi Calm Calm - N/A   Overcast
4:55 AM 70.7 °F - 68.2 °F 92% 29.78 in 2.0 mi Calm Calm - N/A   Overcast
5:15 AM 71.1 °F - 68.5 °F 92% 29.77 in 2.5 mi Calm Calm - N/A   Overcast
5:35 AM 70.2 °F - 67.6 °F 92% 29.77 in 1.5 mi Calm Calm - N/A   Mostly Cloudy
5:55 AM 69.3 °F - 66.9 °F 92% 29.77 in 0.2 mi Calm Calm - N/A Rain Heavy Rain
6:15 AM 70.2 °F - 67.8 °F 92% 29.77 in 0.5 mi NNE 3.5 mph - N/A Rain Heavy Rain
6:35 AM 70.7 °F - 68.2 °F 92% 29.77 in 0.5 mi Calm Calm - N/A Rain Heavy Rain
6:55 AM 70.7 °F - 68.2 °F 92% 29.79 in 1.5 mi SE 3.5 mph - N/A   Overcast
7:15 AM 70.3 °F - 68.0 °F 92% 29.79 in 1.0 mi East 3.5 mph - N/A   Overcast
7:35 AM 70.3 °F - 68.0 °F 92% 29.79 in 0.2 mi East 3.5 mph - N/A Rain Heavy Rain
7:55 AM 70.7 °F - 68.2 °F 92% 29.79 in 0.2 mi ESE 4.6 mph - N/A Rain Rain
8:15 AM 70.9 °F - 68.5 °F 92% 29.79 in 0.2 mi ESE 3.5 mph - N/A Rain Rain
8:35 AM 71.6 °F - 69.3 °F 92% 29.79 in 0.8 mi SE 3.5 mph - N/A Rain Light Rain
8:55 AM 72.0 °F - 69.8 °F 93% 29.80 in 3.0 mi Calm Calm - N/A   Mostly Cloudy
9:15 AM 72.7 °F - 70.2 °F 92% 29.80 in 5.0 mi Calm Calm - N/A   Scattered Clouds
9:35 AM 75.2 °F - 69.4 °F 82% 29.79 in 5.0 mi SE 3.5 mph - N/A   Haze
9:55 AM 77.2 °F - 68.0 °F 73% 29.79 in 7.0 mi ESE 3.5 mph - N/A   Clear
10:15 AM 79.0 °F - 67.1 °F 67% 29.79 in 7.0 mi SE 4.6 mph - N/A   Clear
10:35 AM 80.4 °F 83.0 °F 67.6 °F 65% 29.79 in 7.0 mi SE 4.6 mph - N/A   Clear
10:55 AM 81.0 °F 83.4 °F 67.3 °F 63% 29.79 in 5.0 mi ESE 6.9 mph - N/A   Haze
11:15 AM 81.5 °F 84.2 °F 67.6 °F 63% 29.78 in 5.0 mi SE 9.2 mph - N/A   Haze
11:35 AM 81.1 °F 83.7 °F 67.3 °F 63% 29.77 in 7.0 mi ESE 3.5 mph - N/A   Mostly Cloudy
11:55 AM 82.6 °F 85.3 °F 67.6 °F 60% 29.77 in 7.0 mi ESE 8.1 mph - N/A   Scattered Clouds
12:15 PM 83.1 °F 85.7 °F 66.9 °F 58% 29.76 in 7.0 mi ESE 4.6 mph - N/A   Mostly Cloudy
12:35 PM 83.3 °F 86.2 °F 67.5 °F 59% 29.76 in 7.0 mi East 3.5 mph - N/A   Mostly Cloudy
12:55 PM 85.1 °F 87.9 °F 67.5 °F 55% 29.75 in 7.0 mi East 3.5 mph - N/A   Mostly Cloudy
1:15 PM 85.8 °F 88.5 °F 66.9 °F 53% 29.74 in 5.0 mi East 5.8 mph - N/A   Haze
1:35 PM 85.6 °F 88.2 °F 66.9 °F 53% 29.74 in 7.0 mi East 9.2 mph - N/A   Scattered Clouds
1:55 PM 87.1 °F 90.2 °F 67.6 °F 52% 29.73 in 7.0 mi East 8.1 mph - N/A   Scattered Clouds
2:15 PM 87.1 °F 89.9 °F 66.7 °F 51% 29.73 in 7.0 mi South 4.6 mph - N/A   Mostly Cloudy
2:35 PM 88.2 °F 90.9 °F 66.6 °F 49% 29.72 in 7.0 mi East 10.4 mph - N/A   Mostly Cloudy
2:55 PM 88.7 °F 91.1 °F 66.0 °F 47% 29.72 in 7.0 mi East 4.6 mph - N/A   Scattered Clouds
3:15 PM 89.6 °F 91.8 °F 65.8 °F 45% 29.71 in 7.0 mi SE 4.6 mph - N/A   Scattered Clouds
3:35 PM 89.2 °F 91.3 °F 65.1 °F 45% 29.70 in 7.0 mi ESE 8.1 mph - N/A   Scattered Clouds
3:55 PM 89.8 °F 91.8 °F 65.1 °F 44% 29.69 in 7.0 mi East 9.2 mph - N/A   Scattered Clouds
4:15 PM 89.2 °F 90.6 °F 64.2 °F 43% 29.69 in 7.0 mi East 9.2 mph - N/A   Clear
4:35 PM 90.7 °F 92.1 °F 64.2 °F 41% 29.68 in 5.0 mi East 10.4 mph 17.3 mph N/A   Haze
4:55 PM 88.7 °F 92.6 °F 68.5 °F 51% 29.68 in 7.0 mi ESE 13.8 mph - N/A   Scattered Clouds
5:15 PM 89.2 °F 92.4 °F 67.3 °F 48% 29.68 in 7.0 mi ESE 11.5 mph 19.6 mph N/A   Clear
5:35 PM 88.0 °F 91.8 °F 68.5 °F 52% 29.68 in 7.0 mi East 15.0 mph 19.6 mph N/A   Clear
5:55 PM 87.8 °F 91.8 °F 68.7 °F 53% 29.68 in 7.0 mi ESE 15.0 mph - N/A   Clear
6:15 PM 87.1 °F 91.3 °F 68.9 °F 55% 29.69 in 5.0 mi East 15.0 mph - N/A   Haze
6:35 PM 86.0 °F 90.4 °F 69.4 °F 58% 29.69 in 7.0 mi East 15.0 mph - N/A   Clear
6:55 PM 84.9 °F 89.1 °F 69.8 °F 60% 29.69 in 5.0 mi East 16.1 mph - N/A   Haze
7:15 PM 83.3 °F 86.9 °F 69.3 °F 62% 29.70 in 7.0 mi East 15.0 mph - N/A   Clear
7:35 PM 82.2 °F 86.0 °F 69.8 °F 66% 29.70 in 5.0 mi East 15.0 mph - N/A   Haze
7:55 PM 81.1 °F 84.5 °F 69.6 °F 68% 29.71 in 5.0 mi East 16.1 mph - N/A   Haze
8:15 PM 80.4 °F 83.6 °F 69.8 °F 70% 29.72 in 5.0 mi East 11.5 mph - N/A   Haze
8:35 PM 79.5 °F - 70.2 °F 73% 29.73 in 7.0 mi East 13.8 mph - N/A   Clear
8:55 PM 78.8 °F - 70.7 °F 76% 29.74 in 7.0 mi East 15.0 mph - N/A   Clear
9:15 PM 78.3 °F - 71.1 °F 78% 29.74 in 7.0 mi East 11.5 mph - N/A   Scattered Clouds
9:35 PM 78.1 °F - 71.6 °F 80% 29.75 in 5.0 mi East 11.5 mph - N/A   Haze
9:55 PM 77.9 °F - 71.6 °F 81% 29.76 in 5.0 mi East 10.4 mph - N/A   Haze
10:15 PM 77.4 °F - 71.8 °F 83% 29.77 in 7.0 mi ESE 6.9 mph - N/A   Mostly Cloudy
10:35 PM 76.6 °F - 71.8 °F 85% 29.77 in 5.0 mi ESE 5.8 mph - N/A   Haze
10:55 PM 76.6 °F - 72.0 °F 85% 29.78 in 5.0 mi ESE 9.2 mph - N/A   Haze
11:15 PM 76.5 °F - 71.6 °F 85% 29.78 in 5.0 mi ESE 6.9 mph - N/A   Mostly Cloudy
11:35 PM 76.3 °F - 71.8 °F 86% 29.79 in 5.0 mi SE 8.1 mph - N/A   Mostly Cloudy
11:55 PM 76.1 °F - 72.0 °F 87% 29.78 in 4.0 mi ESE 6.9 mph - N/A   Mostly Cloudy